Wormit, United Kingdom

4:11 AM GMT on January 18, 2017 (GMT +0000)
Dundee

Weather History for EGPN - September, 2012

Change the Weather History Date:

Tuesday, September 25, 2012

  Actual Average Record
Temperature  
Mean Temperature 48 °F -  
Max Temperature 51 °F 54 °F 66 °F (2014)
Min Temperature 46 °F 47 °F 41 °F (2002)
Degree Days  
Heating Degree Days 16    
Moisture  
Dew Point 46 °F    
Average Humidity 85    
Maximum Humidity 94    
Minimum Humidity 76    
Precipitation  
Precipitation 0.00 in - - ()
Sea Level Pressure  
Sea Level Pressure 29.10 in    
Wind  
Wind Speed 18 mph ()    
Max Wind Speed 28 mph    
Max Gust Speed 46 mph    
Visibility 5.6 miles    
Events Rain    
Averages and records for this station are not official NWS values.
T = Trace of Precipitation, MM = Missing Value Source: Averaged Metar Reports

Daily Weather History Graph

Daily Weather History Graph

Search for Another Location

Airport or City:

Trip Planner

Search our weather history database for the weather conditions in past years. The results will help you decide how hot, cold, wet, or windy it might be!

Date:

Astronomy

Sep. 25, 2012 Rise Set
Actual Time 7:03 AM BST 7:02 PM BST
Civil Twilight 6:26 AM BST 7:39 PM BST
Nautical Twilight 5:41 AM BST 8:23 PM BST
Astronomical Twilight 4:54 AM BST 9:10 PM BST
Moon 4:58 PM BST (9/25) 1:20 AM BST (9/25)
Length of Visible Light 13h 13m
Length of Day
11h 58m
Waxing Gibbous, 78% of the Moon is Illuminated
Sep 25
Waxing Gibbous
Sep 30
Full
Oct 8
Last Quarter
Oct 15
New
Oct 22
First Quarter

Hourly Weather History & Observations

Time (BST) Temp. Windchill Dew Point Humidity Pressure Visibility Wind Dir Wind Speed Gust Speed Precip Events Conditions
6:20 AM 46.4 °F 39.2 °F 41.0 °F 81% 29.09 in 6.2 mi NNE 18.4 mph 32.2 mph N/A   Mostly Cloudy
6:50 AM 46.4 °F 39.0 °F 41.0 °F 81% 29.09 in 6.2 mi NNE 19.6 mph 46.0 mph N/A   Mostly Cloudy
7:20 AM 46.4 °F 38.7 °F 41.0 °F 81% 29.03 in 6.2 mi NNE 20.7 mph 38.0 mph N/A Rain Light Rain
7:50 AM 48.2 °F - 41.0 °F 76% 29.03 in 6.2 mi NNE 21.9 mph 40.3 mph N/A   Mostly Cloudy
8:20 AM 48.2 °F - 41.0 °F 76% 28.97 in 6.2 mi NNE 24.2 mph 44.9 mph N/A   Mostly Cloudy
8:50 AM 48.2 °F - 41.0 °F 76% 28.97 in 6.2 mi NNE 25.3 mph 46.0 mph N/A   Mostly Cloudy
9:20 AM 48.2 °F - 42.8 °F 82% 28.94 in 6.2 mi NNE 23.0 mph 40.3 mph N/A Rain Rain
9:50 AM 48.2 °F - 44.6 °F 87% 28.94 in 6.2 mi NNE 27.6 mph 46.0 mph N/A Rain Rain
10:20 AM 48.2 °F - 46.4 °F 93% 28.97 in 6.2 mi NNE 21.9 mph 39.1 mph N/A Rain Rain
10:50 AM 51.8 °F - 48.2 °F 88% 29.00 in 6.2 mi ENE 18.4 mph - N/A Rain Rain
11:20 AM 51.8 °F - 48.2 °F 88% 29.03 in 3.1 mi ENE 20.7 mph 32.2 mph N/A Rain Rain
11:50 AM 50.0 °F - 48.2 °F 94% 29.06 in 3.1 mi ENE 19.6 mph 31.1 mph N/A Rain Rain
12:20 PM 51.8 °F - 48.2 °F 88% 29.06 in 3.1 mi ENE 19.6 mph - N/A Rain Rain
12:50 PM 51.8 °F - 48.2 °F 88% 29.09 in 3.1 mi ENE 19.6 mph - N/A Rain Rain
1:20 PM 51.8 °F - 48.2 °F 88% 29.09 in 2.5 mi ENE 18.4 mph 31.1 mph N/A Rain Rain
1:50 PM 50.0 °F - 48.2 °F 94% 29.12 in 3.7 mi ENE 13.8 mph - N/A Rain Rain
2:20 PM 50.0 °F - 48.2 °F 94% 29.12 in 6.2 mi ENE 16.1 mph 28.8 mph N/A Rain Light Rain
2:50 PM 51.8 °F - 48.2 °F 88% 29.12 in 6.2 mi ENE 17.3 mph 31.1 mph N/A Rain Light Rain
3:20 PM 51.8 °F - 48.2 °F 88% 29.12 in 6.2 mi ENE 19.6 mph - N/A Rain Light Rain
4:20 PM 51.8 °F - 46.4 °F 82% 29.15 in 6.2 mi ENE 16.1 mph - N/A   Mostly Cloudy
4:50 PM 51.8 °F - 46.4 °F 82% 29.15 in 6.2 mi ENE 17.3 mph 28.8 mph N/A   Mostly Cloudy
5:20 PM 50.0 °F - 46.4 °F 87% 29.18 in 6.2 mi ENE 16.1 mph - N/A Rain Light Rain
5:50 PM 50.0 °F - 46.4 °F 87% 29.18 in 6.2 mi ENE 15.0 mph - N/A   Mostly Cloudy
6:20 PM 51.8 °F - 46.4 °F 82% 29.18 in 6.2 mi ENE 16.1 mph - N/A   Scattered Clouds
6:50 PM 51.8 °F - 46.4 °F 82% 29.21 in 6.2 mi ENE 17.3 mph 28.8 mph N/A   Scattered Clouds
7:20 PM 51.8 °F - 46.4 °F 82% 29.21 in 6.2 mi ENE 18.4 mph 29.9 mph N/A   Scattered Clouds
8:20 PM 51.8 °F - 46.4 °F 82% 29.24 in 6.2 mi ENE 19.6 mph 32.2 mph N/A   Scattered Clouds
8:50 PM 51.8 °F - 46.4 °F 82% 29.24 in 6.2 mi ENE 17.3 mph - N/A   Scattered Clouds
9:20 PM 51.8 °F - 46.4 °F 82% 29.24 in 6.2 mi ENE 18.4 mph 33.4 mph N/A Rain Light Rain
9:50 PM 51.8 °F - 46.4 °F 82% 29.24 in 6.2 mi NE 17.3 mph - N/A   Scattered Clouds